Regional Weather Roundup
Issued by NWS

Home | Current Version | Previous Version | Text Only | Print | Product List | Glossary On
Versions: 1 2 3 4 5 6 7 8 9 10 11 12 13 14 15 16 17 18 19 20 21 22 23 24 25 26 27 28 29 30 31 32 33 34 35 36 37 38 39 40 41 42 43 44 45 46 47 48 49 50
044
ASHW40 PHFO 202043
RWRHI

WEATHER ROUNDUP FOR HAWAII
NATIONAL WEATHER SERVICE HONOLULU HI
1000 AM HST MON FEB 20 2017

THIS IS AN AUTOMATED REPORT THAT HAS NOT BEEN QUALITY CONTROLLED.

NOTE..."FAIR" INDICATES FEW OR NO CLOUDS BELOW 12,000 FEET WITH NO
SIGNIFICANT WEATHER AND/OR OBSTRUCTIONS TO VISIBILITY.

* - THESE SITES REPORT LIMITED FIELDS

HIZ001>004-202100-
KAUAI-NIIHAU-

CITY           SKY/WX    TMP DP  RH WIND       PRES   REMARKS
LIHUE APT      PTSUNNY   72  55  55 NE18      30.27R
PORT ALLEN*      N/A     73 N/A N/A NE24G31     N/A
POIPU*           N/A     73 N/A N/A NE13G26     N/A
PRINCEVILLE*     N/A     70 N/A N/A E9G17       N/A
KOKOLE POINT*  NOT AVBL
MOLOAA DAIRY*    N/A     73  55  53 E5G14       N/A
WAIMEA HTS*      N/A     79  55  44 SW3G12      N/A
PUU OPAE*        N/A     70  54  56 NE3G12      N/A
PUU LUA*       NOT AVBL
MAKAHA RIDGE*    N/A     66  52  59 W3          N/A
$$

HIZ005>011-202100-
OAHU-

CITY           SKY/WX    TMP DP  RH WIND       PRES   REMARKS
HONOLULU       MOSUNNY   75  56  51 NE18G26   30.22R
KALAELOA       MOSUNNY   78  58  49 NE12G21   30.23R
KANEOHE MCB    CLOUDY    75  59  57 NE15G25   30.23
WHEELER FIELD  FAIR      71  57  61 NE13G22   30.23
BELLOWS*         N/A    N/A N/A N/A NE23G29     N/A
KAHUKU*          N/A    N/A N/A N/A NE10G23     N/A
WHEELER*         N/A    N/A N/A N/A NE10G21     N/A
WAIANAE HARBOR   N/A    N/A N/A N/A E10G23      N/A
DILLINGHAM*    NOT AVBL
KAHUKU TRN*      N/A     73  55  53 W15G26      N/A
KAWAILOA*        N/A     66  54  63 E16G31      N/A
KII*             N/A     73  55  53 E20G28      N/A
MAKUA RANGE*     N/A     75  57  53 W6G22       N/A
OAHU FOREST NW   N/A     66  52  59 CALM        N/A
SCHOFIELD BRK*   N/A     70  57  64 MISG        N/A
SCHOFIELD S*   NOT AVBL
WAIANAE VLY*     N/A     73  55  53 S6G18       N/A
KUAOKALA*        N/A     70   0   6 NE26G41     N/A
HONOULIUULI*   NOT AVBL
MOKUOLOE IS*   NOT AVBL
PALEHUA*         N/A     64  54  68 NE13G29     N/A
WAIAWA PHB*    NOT AVBL
$$

HIZ012>013-202100-
MOLOKAI-

CITY           SKY/WX    TMP DP  RH WIND       PRES   REMARKS
MOLOKAI AIRPT  MOSUNNY   74  58  57 NE18G30   30.23R
KALAUPAPA      NOT AVBL
MAKAPULAPAI*     N/A     72  59  64 E25G33      N/A
MOLOKAI 1*       N/A     57  52  82 NE9G23      N/A
PUU ALII*        N/A     52  52 100 N3G14       N/A
$$

HIZ016-202100-
KAHOOLAWE-

CITY           SKY/WX    TMP DP  RH WIND       PRES   REMARKS
KAHOOLAWE*     NOT AVBL
HAKIOAWA*        N/A     68  60  75 MISG      30.61R
HONOKANAIA*      N/A     76  60  57 N16G31    30.13R
KANELOA*         N/A     70  57  64 E7G23     30.25R
KEALIALALO*    NOT AVBL
LUA MAKIKA*    NOT AVBL
$$

HIZ014>015-202100-
LANAI-

CITY           SKY/WX    TMP DP  RH WIND       PRES   REMARKS
LANAI CITY       N/A     69  59  70 NE32G40   30.21R
LANAI 1*         N/A     68  55  64 NE25G37     N/A
$$

HIZ017>028-202100-
MAUI-

CITY           SKY/WX    TMP DP  RH WIND       PRES   REMARKS
KAHULUI        PTSUNNY   75  59  57 NE22G29   30.24R
KAPALUA-W MAUI PTSUNNY   72  59  64 N20G33    30.22
HANA AIRPORT   CLOUDY    73  61  64 NE15      30.30S HAZE
HANA*            N/A     72 N/A N/A NE14G22     N/A
HALEAKALA SUMM   N/A     48  23  37 SE6G37      N/A
MAALAEA BAY*     N/A     73 N/A N/A N24G36      N/A
HALEAKALA*     NOT AVBL
KAUPO GAP*       N/A     77  68  73 S6G14       N/A
KULA 1*          N/A     62  41  46 S3G12       N/A
$$

HIZ023>026-202100-
BIG ISLAND OF HAWAII COAST AND LOWER SLOPES-

CITY           SKY/WX    TMP DP  RH WIND       PRES   REMARKS
KAILUA KONA    PTSUNNY   79  64  61 SW8       30.14S
HILO           PTSUNNY   74  60  61 NE10      30.25R
HONOKAA*         N/A     64 N/A N/A VRB1        N/A
KAWAIHAE MWT*    N/A     77 N/A N/A W6          N/A
KAWAIHAE*        N/A     75 N/A N/A W10       30.14S
SOUTH POINT*     N/A     72 N/A N/A N22G33      N/A
UPOLU AIRPORT* NOT AVBL
KAMUELA*       PTCLDY    64  57  77 NE20G35   30.26F
HAKALAU*         N/A     50  49  96 NE5G10      N/A
KALOKO-HONOKO*   N/A     81  66  61 SW6       30.14R
PALI 2*          N/A     70  52  52 S26G40      N/A
KEALAKOMO*       N/A     73  59  60 NE23G32     N/A
KAUPULEHU*       N/A     79  55  44 NE17G28     N/A
KAPAPALA*        N/A     73  54  51 S5G10       N/A
LOWER KAHUKU*    N/A     63  54  72 SE2G12      N/A
PUHE CS*         N/A     79  57  47 SW2         N/A
PUHO CS*         N/A     79  65  61 SW2         N/A
PTA KEAMUKU*     N/A     63  54  72 CALM        N/A
WAIKOLOA*        N/A     75  57  53 NE24G41     N/A
$$

HIZ027>028-202100-
BIG ISLAND OF HAWAII INTERIOR AND SUMMMITS-

CITY           SKY/WX    TMP DP  RH WIND       PRES   REMARKS
BRADSHAW FIELD SUNNY     59  44  56 S10G17    30.44R
MK VISITOR CEN   N/A     52  14  22 E6          N/A
MAUNA KEA*       N/A     28  14  54 SW8         N/A  WCI  20
MAUNA LOA*       N/A    N/A N/A N/A MISG        N/A
MAUNA LOA 1*   NOT AVBL
PTA KIPUKA*      N/A    N/A N/A N/A N6G13       N/A
PTA RANGE 17*    N/A     72  50  46 SE14        N/A
PTA WEST*        N/A    N/A N/A N/A NW5G12      N/A
NENE CABIN*      N/A    N/A N/A N/A SE6G12      N/A
AHUMOA*          N/A     66  38  35 SW9         N/A
PTA PORTABLE*  NOT AVBL
PUU MALI*        N/A    N/A N/A N/A E14G21      N/A
$$

HIC003-202100-
NORTHWEST ISLANDS-

CITY           SKY/WX    TMP DP  RH WIND       PRES   REMARKS
MIDWAY ISLAND  MOSUNNY   72  66  83 S15       30.14R
MIDWAY NOS*      N/A     72 N/A N/A MISG      30.13R
FRENCH FRIGATE NOT AVBL
$$

PHZ110>124-180-202100-
BUOY REPORTS

STATION/POSITION TIME  TEMP    WIND        PRES    WAVE   SWELL
                       AIR SEA DIR/SP/G            HT/PER HT/DIR
                 (UTC) (F)     (DEG/KT/KT) (MB)    (FT/S) (FT/D)
BUOY 51001       2030   70 72   80/ 17/ 21 1026.0R
BUOY 51101       1950   70 72   90/ 14/ 17 1026.3R  10/12   8/340
BUOY 51100       NOT AVBL
BUOY 51002       2030   76 78   60/ 23/ 29 1020.5S
BUOY 51003       1950   75 77   60/ 19/ 23 1021.7R  12/ 9   8/350
BUOY 51004       1950      77   60/ 19/ 23 1020.9R  11/14   7/330
BARBERS PT BUOY  NOT AVBL
WAIMEA BAY BUOY  2002      75                N/A    12/13  10/330
KAILUA BAY BUOY  2004      76                N/A    10/14   7/350
LANAI BUOY       2015      77                N/A     4/14   2/320
BARBERS PT 2     NOT AVBL
PAUWELA MAUI     2009      75                N/A    12/13  10/330
HILO             2012      77                N/A    10/13   8/340
KANEOHE BAY BUOY 2006      76                N/A    10/13   7/340
HANALEI KAUAI    2022      75                N/A    11/11   8/330
KAHULUI HARBOR   2012   72 76   50/ 20/ 24 1024.3
HONOLULU HARBOR  2012   74 75  100/  7/ 14 1024.0
KILO NALU        NOT AVBL
HILO HARBOR      2012   74 76   30/ 12/ 19 1024.2
MOKUOLOE         1936   73 75   60/ 16/ 22 1024.3R
NAWILIWILI       2012   71 76   30/ 13/ 20 1024.7
WHOTS BUOY       NOT AVBL
BUOY 51028       NOT AVBL
$$

......................KEY........................................
  SKY/WX - SKY CONDITIONS/PRESENT WEATHER
  TMP    - TEMPERATURE IN FAHRENHEIT
  DWPT   - DEWPOINT IN FAHRENHEIT
  RH     - RELATIVE HUMIDITY IN PERCENT
  WIND   - DIRECTION AND SPEED /MPH FOR ISLANDS...KTS FOR BUOYS/
  PRES   - MEAN SEA LEVEL PRESSURE IN INCHES OF HG
  VSB    - VISIBILITY IN MILES
  HX     - HEAT INDEX
  WCI    - WIND CHILL INDEX
  VRB    - VARIABLE WIND DIRECTION
  N/A    - NOT AVAILABLE




USA.gov is the U.S. government's official web portal to all federal, state and local government web resources and services.